Homer, AK

6:48 AM AKDT on March 27, 2017 (GMT -0800)
Homer

Weather History for PAHO - March, 2013

Change the Weather History Date:

Thursday, March 21, 2013

  Actual Average Record
Temperature  
Mean Temperature 22 °F -  
Max Temperature 32 °F 37 °F 51 °F (2015)
Min Temperature 14 °F 25 °F 1 °F (1951)
Degree Days  
Heating Degree Days 43    
Moisture  
Dew Point 10 °F    
Average Humidity 54    
Maximum Humidity 71    
Minimum Humidity 43    
Precipitation  
Precipitation 0.00 in - - ()
Sea Level Pressure  
Sea Level Pressure 30.13 in    
Wind  
Wind Speed 4 mph (ENE)    
Max Wind Speed 9 mph    
Max Gust Speed -    
Visibility 10 miles    
Events      
Averages and records for this station are not official NWS values.
T = Trace of Precipitation, MM = Missing Value Source: NWS Daily Summary

Daily Weather History Graph

Daily Weather History Graph

Search for Another Location

Airport or City:

Trip Planner

Search our weather history database for the weather conditions in past years. The results will help you decide how hot, cold, wet, or windy it might be!

Date:

Astronomy

Mar. 21, 2013 Rise Set
Actual Time 8:03 AM AKDT 8:24 PM AKDT
Civil Twilight 7:21 AM AKDT 9:05 PM AKDT
Nautical Twilight 6:32 AM AKDT 9:55 PM AKDT
Astronomical Twilight 5:38 AM AKDT 10:49 PM AKDT
Moon 1:53 PM AKDT (3/21) 5:44 AM AKDT (3/21)
Length of Visible Light 13h 43m
Length of Day
12h 20m
Waxing Gibbous, 70% of the Moon is Illuminated
Mar 21
Waxing Gibbous
Mar 27
Full
Apr 2
Last Quarter
Apr 10
New
Apr 18
First Quarter

Hourly Weather History & Observations

Time (AKDT) Temp. Windchill Dew Point Humidity Pressure Visibility Wind Dir Wind Speed Gust Speed Precip Events Conditions
12:53 AM 23.0 °F 15.8 °F 6.1 °F 48% 30.01 in 10.0 mi North 5.8 mph - N/A   Clear
1:53 AM 21.0 °F 14.6 °F 7.0 °F 55% 30.03 in 10.0 mi NNE 4.6 mph - N/A   Clear
2:53 AM 18.0 °F 9.8 °F 7.0 °F 62% 30.05 in 10.0 mi NE 5.8 mph - N/A   Clear
3:53 AM 19.9 °F 12.1 °F 6.1 °F 55% 30.06 in 10.0 mi North 5.8 mph - N/A   Clear
4:53 AM 21.9 °F 17.2 °F 7.0 °F 53% 30.09 in 10.0 mi ESE 3.5 mph - N/A   Clear
5:53 AM 17.1 °F - 6.1 °F 62% 30.09 in 10.0 mi Calm Calm - N/A   Clear
6:53 AM 14.0 °F - 6.1 °F 71% 30.11 in 10.0 mi Calm Calm - N/A   Clear
7:53 AM 15.1 °F 9.4 °F 5.0 °F 64% 30.13 in 10.0 mi NNE 3.5 mph - N/A   Clear
8:53 AM 18.0 °F 11.1 °F 6.1 °F 60% 30.15 in 10.0 mi NE 4.6 mph - N/A   Clear
9:53 AM 23.0 °F 14.7 °F 10.9 °F 60% 30.16 in 10.0 mi NE 6.9 mph - N/A   Clear
10:53 AM 24.1 °F 15.2 °F 12.9 °F 62% 30.17 in 10.0 mi ENE 8.1 mph - N/A   Clear
11:53 AM 26.1 °F 16.8 °F 12.0 °F 55% 30.18 in 7.0 mi East 9.2 mph - N/A   Clear
12:53 PM 28.0 °F 20.8 °F 10.0 °F 47% 30.19 in 10.0 mi East 6.9 mph - N/A   Clear
1:53 PM 30.0 °F 23.2 °F 10.0 °F 43% 30.19 in 10.0 mi ENE 6.9 mph - N/A   Clear
2:53 PM 30.9 °F - 10.9 °F 43% 30.19 in 2.5 mi Calm Calm - N/A   Haze
3:07 PM 30.2 °F - 10.4 °F 44% 30.18 in 10.0 mi Calm Calm - N/A   Clear
3:53 PM 30.0 °F - 10.9 °F 45% 30.19 in 10.0 mi Calm Calm - N/A   Mostly Cloudy
4:53 PM 30.9 °F 27.5 °F 12.9 °F 47% 30.18 in 10.0 mi East 3.5 mph - N/A   Mostly Cloudy
5:53 PM 30.9 °F 26.2 °F 14.0 °F 50% 30.17 in 10.0 mi ENE 4.6 mph - N/A   Overcast
6:53 PM 30.9 °F - 12.0 °F 46% 30.15 in 10.0 mi Calm Calm - N/A   Partly Cloudy
7:53 PM 30.9 °F - 15.1 °F 52% 30.14 in 10.0 mi Calm Calm - N/A   Scattered Clouds
8:53 PM 30.0 °F - 14.0 °F 51% 30.15 in 10.0 mi Calm Calm - N/A   Scattered Clouds
9:53 PM 28.9 °F - 16.0 °F 58% 30.14 in 10.0 mi Calm Calm - N/A   Clear
10:53 PM 30.9 °F 25.2 °F 17.1 °F 57% 30.13 in 10.0 mi East 5.8 mph - N/A   Mostly Cloudy
11:53 PM 28.9 °F 23.9 °F 15.1 °F 56% 30.11 in 10.0 mi ENE 4.6 mph - N/A   Mostly Cloudy